STARLINK-30490

decayed
NORAD ID: 57922 Int'l Des: 2023-147 Owner: SPXS Country: US Constellation: starlink
LEOCIRCULAR
Group

About STARLINK-30490

Description loading...

Altitude History

Altitude vs Time

uPlot chart will show altitude changes over time

Two-Line Element Set

1 57922U 23147K 23274.71809485 .12914405 93469-5 76439-3 0 9996
2 57922 42.9978 146.4920 0000970 273.7795 147.0160 16.41461193 2375
Epoch: Oct 1, 2023 • Age: 17234 hours

Current Status

Position data unavailable
Launch Date Sep 24, 2023
Age 1.9 years
Decay Date Oct 1, 2023
Type internet

Technical Details

Classification Payload
Mass 730.00 kg
Dry Mass 700.00 kg
Total Mass 730.00 kg
Length 0.30 m
Diameter 4.10 m
Span 29.00 m
Shape Box + pan
Manufacturer SPXS
Bus Type Starlink V2M
Phase Status Unknown Transfer Status
Owner/State SPXS/US

Large Constellations

Loading constellations...